TimeEDT,TemperatureF,Dew PointF,Humidity,Sea Level PressureIn,VisibilityMPH,Wind Direction,Wind SpeedMPH,Gust SpeedMPH,PrecipitationIn,Events,Conditions,WindDirDegrees,DateUTC
12:58 AM,68.5,68.5,100,30.13,10.0,Calm,Calm,-,N/A,,Overcast,0,2013-08-20 04:58:00
1:58 AM,67.5,67.5,100,30.13,10.0,Calm,Calm,-,N/A,,Overcast,0,2013-08-20 05:58:00
2:13 AM,68.0,68.0,100,30.11,9.0,Calm,Calm,-,N/A,,Mostly Cloudy,0,2013-08-20 06:13:00
2:23 AM,68.0,68.0,100,30.11,4.0,Calm,Calm,-,N/A,,Mostly Cloudy,0,2013-08-20 06:23:00
2:28 AM,68.0,68.0,100,30.11,3.0,Calm,Calm,-,N/A,,Scattered Clouds,0,2013-08-20 06:28:00
2:33 AM,66.2,66.2,100,30.11,7.0,Calm,Calm,-,N/A,,Partly Cloudy,0,2013-08-20 06:33:00
2:38 AM,66.2,66.2,100,30.11,4.0,Calm,Calm,-,N/A,,Partly Cloudy,0,2013-08-20 06:38:00
2:43 AM,66.2,66.2,100,30.11,2.0,Calm,Calm,-,N/A,,Clear,0,2013-08-20 06:43:00
2:53 AM,66.2,66.2,100,30.11,1.5,Calm,Calm,-,N/A,,Clear,0,2013-08-20 06:53:00
2:58 AM,66.2,66.2,100,30.12,1.0,Calm,Calm,-,N/A,,Clear,0,2013-08-20 06:58:00
3:03 AM,66.2,66.2,100,30.11,0.8,Calm,Calm,-,N/A,,Clear,0,2013-08-20 07:03:00
3:08 AM,66.2,66.2,100,30.11,1.0,Calm,Calm,-,N/A,,Clear,0,2013-08-20 07:08:00
3:23 AM,66.2,66.2,100,30.11,1.5,Calm,Calm,-,N/A,,Clear,0,2013-08-20 07:23:00
3:28 AM,66.2,66.2,100,30.11,4.0,Calm,Calm,-,N/A,,Clear,0,2013-08-20 07:28:00
3:33 AM,66.2,66.2,100,30.11,6.0,Calm,Calm,-,N/A,,Clear,0,2013-08-20 07:33:00
3:43 AM,66.2,66.2,100,30.11,9.0,Calm,Calm,-,N/A,,Clear,0,2013-08-20 07:43:00
3:53 AM,64.4,64.4,100,30.10,5.0,Calm,Calm,-,N/A,,Clear,0,2013-08-20 07:53:00
3:58 AM,64.4,64.4,100,30.11,2.0,Calm,Calm,-,N/A,,Clear,0,2013-08-20 07:58:00
4:03 AM,64.4,64.4,100,30.11,1.2,Calm,Calm,-,N/A,,Clear,0,2013-08-20 08:03:00
4:08 AM,64.4,64.4,100,30.11,1.8,Calm,Calm,-,N/A,,Clear,0,2013-08-20 08:08:00
4:13 AM,64.4,64.4,100,30.11,1.2,Calm,Calm,-,N/A,,Clear,0,2013-08-20 08:13:00
4:18 AM,64.4,64.4,100,30.11,1.0,Calm,Calm,-,N/A,,Clear,0,2013-08-20 08:18:00
4:23 AM,64.4,64.4,100,30.11,1.2,Calm,Calm,-,N/A,,Clear,0,2013-08-20 08:23:00
4:28 AM,64.4,64.4,100,30.11,2.5,Calm,Calm,-,N/A,,Clear,0,2013-08-20 08:28:00
4:33 AM,64.4,64.4,100,30.11,2.0,Calm,Calm,-,N/A,,Partly Cloudy,0,2013-08-20 08:33:00
4:38 AM,64.4,64.4,100,30.11,2.0,Calm,Calm,-,N/A,,Scattered Clouds,0,2013-08-20 08:38:00
4:43 AM,64.4,64.4,100,30.11,4.0,Calm,Calm,-,N/A,,Scattered Clouds,0,2013-08-20 08:43:00
4:48 AM,64.4,64.4,100,30.11,5.0,Calm,Calm,-,N/A,,Partly Cloudy,0,2013-08-20 08:48:00
4:53 AM,64.4,64.4,100,30.11,1.8,Calm,Calm,-,N/A,,Partly Cloudy,0,2013-08-20 08:53:00
4:58 AM,64.4,64.4,100,30.12,1.8,Calm,Calm,-,N/A,,Partly Cloudy,0,2013-08-20 08:58:00
5:03 AM,64.4,64.4,100,30.11,2.0,Calm,Calm,-,N/A,,Partly Cloudy,0,2013-08-20 09:03:00
5:08 AM,64.4,64.4,100,30.11,1.2,Calm,Calm,-,N/A,,Clear,0,2013-08-20 09:08:00
5:18 AM,62.6,62.6,100,30.11,2.5,SSE,1.2,-,N/A,,Clear,150,2013-08-20 09:18:00
5:23 AM,64.4,64.4,100,30.11,4.0,Calm,Calm,-,N/A,,Clear,0,2013-08-20 09:23:00
5:28 AM,62.6,62.6,100,30.11,5.0,Calm,Calm,-,N/A,,Clear,0,2013-08-20 09:28:00
5:48 AM,62.6,62.6,100,30.11,4.0,Calm,Calm,-,N/A,,Clear,0,2013-08-20 09:48:00
5:53 AM,62.6,62.6,100,30.12,1.8,Calm,Calm,-,N/A,,Clear,0,2013-08-20 09:53:00
5:58 AM,62.6,62.6,100,30.13,1.2,Calm,Calm,-,N/A,,Clear,0,2013-08-20 09:58:00
6:03 AM,62.6,62.6,100,30.12,1.5,Calm,Calm,-,N/A,,Clear,0,2013-08-20 10:03:00
6:08 AM,62.6,62.6,100,30.12,3.0,Calm,Calm,-,N/A,,Clear,0,2013-08-20 10:08:00
6:13 AM,62.6,62.6,100,30.13,6.0,North,1.2,-,N/A,,Clear,350,2013-08-20 10:13:00
6:18 AM,62.6,62.6,100,30.13,10.0,NW,1.2,-,N/A,,Clear,320,2013-08-20 10:18:00
6:43 AM,62.6,62.6,100,30.13,1.2,Calm,Calm,-,N/A,,Clear,0,2013-08-20 10:43:00
6:48 AM,62.6,62.6,100,30.14,1.0,Calm,Calm,-,N/A,,Clear,0,2013-08-20 10:48:00
6:53 AM,62.6,62.6,100,30.14,3.0,Calm,Calm,-,N/A,,Partly Cloudy,0,2013-08-20 10:53:00
6:58 AM,62.6,62.6,100,30.15,5.0,Calm,Calm,-,N/A,,Scattered Clouds,0,2013-08-20 10:58:00
7:03 AM,62.6,62.6,100,30.15,7.0,Calm,Calm,-,N/A,,Mostly Cloudy,0,2013-08-20 11:03:00
7:18 AM,64.4,64.4,100,30.15,9.0,Calm,Calm,-,N/A,,Overcast,0,2013-08-20 11:18:00
7:33 AM,64.4,64.4,100,30.15,10.0,NNW,2.3,-,N/A,,Overcast,330,2013-08-20 11:33:00
7:43 AM,66.2,66.2,100,30.16,10.0,NNW,1.2,-,N/A,,Overcast,330,2013-08-20 11:43:00
7:58 AM,67.5,67.5,100,30.17,5.0,Calm,Calm,-,N/A,,Scattered Clouds,0,2013-08-20 11:58:00
8:58 AM,72.5,68.7,88,30.18,10.0,Calm,Calm,-,N/A,,Clear,0,2013-08-20 12:58:00
9:58 AM,75.9,69.1,79,30.19,10.0,Calm,Calm,-,N/A,,Partly Cloudy,0,2013-08-20 13:58:00
10:58 AM,79.7,69.1,70,30.19,10.0,SSW,1.2,-,N/A,,Clear,200,2013-08-20 14:58:00
11:58 AM,81.9,68.5,64,30.18,10.0,Calm,Calm,-,N/A,,Scattered Clouds,0,2013-08-20 15:58:00
12:58 PM,82.6,69.6,65,30.18,10.0,SE,3.5,-,N/A,,Partly Cloudy,130,2013-08-20 16:58:00
1:58 PM,84.0,68.7,60,30.17,10.0,SSE,4.6,-,N/A,,Partly Cloudy,160,2013-08-20 17:58:00
2:58 PM,84.7,67.6,56,30.16,10.0,SSE,5.8,-,N/A,,Partly Cloudy,150,2013-08-20 18:58:00
3:58 PM,85.5,66.4,53,30.14,10.0,South,6.9,-,N/A,,Clear,190,2013-08-20 19:58:00
4:58 PM,83.8,66.7,56,30.14,10.0,Variable,6.9,-,N/A,,Clear,0,2013-08-20 20:58:00
5:58 PM,83.3,66.4,57,30.13,10.0,Variable,3.5,-,N/A,,Clear,0,2013-08-20 21:58:00
6:58 PM,81.7,68.7,65,30.13,10.0,South,3.5,-,N/A,,Clear,180,2013-08-20 22:58:00
7:58 PM,78.8,70.0,74,30.14,10.0,Variable,2.3,-,N/A,,Clear,0,2013-08-20 23:58:00
8:58 PM,72.9,72.0,97,30.16,10.0,Calm,Calm,-,N/A,,Clear,0,2013-08-21 00:58:00
9:43 PM,71.6,71.6,100,30.16,9.0,Calm,Calm,-,N/A,,Clear,0,2013-08-21 01:43:00
9:58 PM,71.1,71.1,100,30.17,8.0,Calm,Calm,-,N/A,,Clear,0,2013-08-21 01:58:00
10:58 PM,69.4,69.4,100,30.18,6.0,SE,2.3,-,N/A,,Clear,130,2013-08-21 02:58:00
11:43 PM,69.8,69.8,100,30.17,5.0,Calm,Calm,-,N/A,,Clear,0,2013-08-21 03:43:00
11:58 PM,69.4,69.4,100,30.18,4.0,Calm,Calm,-,N/A,,Clear,0,2013-08-21 03:58:00